Location: *
(41.7492°S, 135.4150°W)
Time: 02:32:37
(UTC+00:00)

ITAMSAT 1 - Pass Details

Date: 05 July 2022
Orbit: 784 x 795 km, 98.9° (Epoch: 09 August)

Event Time Altitude Azimuth Distance (km) Brightness Sun altitude
Rises 14:56:21 0° 50° (NE) 3,297 12.1 -16.7°
Reaches altitude 10° 14:59:01 10° 62° (ENE) 2,374 11.4 -16.2°
Maximum altitude 15:03:14 25° 116° (ESE) 1,569 9.8 -15.5°
Drops below altitude 10° 15:07:28 10° 169° (S) 2,392 10.1 -14.7°
Sets 15:10:10 0° 182° (S) 3,327 10.7 -14.2°
